Regional Weather Roundup
Issued by NWS

Home | Current Version | Previous Version | Graphics & Text | Print | Product List | Glossary Off
Versions: 1 2 3 4 5 6 7 8 9 10 11 12 13 14 15 16 17 18 19 20 21 22 23 24 25 26 27 28 29 30 31 32 33 34 35 36 37 38 39 40 41 42 43 44 45 46 47 48 49 50

000
ASUS43 KMKX 060421
RWRWI

WISCONSIN REGIONAL WEATHER ROUNDUP
NATIONAL WEATHER SERVICE MILWAUKEE/SULLIVAN WI
1100 PM CDT SUN JUL 05 2015

NOTE: "FAIR" INDICATES FEW OR NO CLOUDS BELOW 12,000 FEET WITH NO
SIGNIFICANT WEATHER AND/OR OBSTRUCTIONS TO VISIBILITY.

WIZ001-002-006>008-014>016-023>028-060500-
NORTHWEST WISCONSIN

CITY           SKY/WX    TMP DP  RH WIND       PRES   REMARKS
SUPERIOR ARPT  HVY RAIN  68  66  93 NW12      29.81R
ASHLAND        CLOUDY    76  66  71 S14G21    29.79F
HAYWARD        CLOUDY    75  65  70 S13       29.84S
SIREN          PTCLDY    77  66  68 S13       29.80F
CUMBERLAND     PTCLDY    72  64  78 S8        29.84F
RICE LAKE      PTCLDY    73  65  76 SE7       29.86F
CHETEK         PTCLDY    73  67  81 SE5       29.85F
LADYSMITH      PTCLDY    73  64  75 S7        29.89F
EAU CLAIRE     CLEAR     74  65  73 S8        29.85R
MENOMONIE      CLEAR     74  65  74 SE6       29.85S
NEW RICHMOND   PTCLDY    73  65  76 S8        29.82F
OSCEOLA        PTCLDY    76  66  71 S10G16    29.81F
$$

WIZ003>005-009-010-017-018-060500-
NORTH CENTRAL WISCONSIN

CITY           SKY/WX    TMP DP  RH WIND       PRES   REMARKS
MANITOWISH WTR MOCLDY    71  64  80 S7        29.90R
ARBOR VITAE    PTCLDY    72  64  75 S8        29.90F
WOODRUFF       PTCLDY    72  64  75 S8        29.90F
RHINELANDER    CLEAR     72  61  68 SW8       29.93R
EAGLE RIVER    PTCLDY    70  59  68 S3        29.91S
LAND O LAKES   CLEAR     72  61  68 S8        29.90F
PHILLIPS       PTCLDY    70  64  80 S8        29.88F
TOMAHAWK       CLEAR     68  62  80 CALM      29.93R
MEDFORD        CLEAR     70  64  80 S9        29.92R
MERRILL        CLEAR     72  64  78 S5        29.93R
$$

WIZ029-030-035-036-043>047-060500-
CENTRAL WISCONSIN

CITY           SKY/WX    TMP DP  RH WIND       PRES   REMARKS
WAUSAU         CLEAR     72  63  73 SE8       29.90F
MOSINEE        CLEAR     68  64  88 S7        29.93F FOG
MARSHFIELD     CLEAR     71  62  73 S10       29.91F
STEVENS POINT  CLEAR     70  63  76 S9        29.93S
WAUPACA        CLEAR     71  66  83 S5        29.93F
WAUTOMA        CLEAR     71  66  84 CALM      29.93F
WISC RAPIDS    CLEAR     72  62  71 S6        29.93F
CAMP DOUGLAS   CLEAR     70  70 100 S3        29.91F
$$

WIZ011>013-019>022-031-037>040-048>050-060500-
NORTHEAST WISCONSIN

CITY           SKY/WX    TMP DP  RH WIND       PRES   REMARKS
ANTIGO         CLEAR     65  63  91 S7        29.94S
SHAWANO        CLEAR     74  64  70 SW3       29.92F
OCONTO         CLEAR     70  64  81 S5        29.93F
STURGEON BAY   CLEAR     66  57  72 S10       29.97S
GREEN BAY      CLEAR     70  62  76 S9        29.94F
MANITOWOC      CLEAR     67  60  78 MISG      29.96F
APPLETON       PTCLDY    72  61  68 S8        29.95F
CLINTONVILLE   CLEAR     72  63  73 S7        29.92F
OSHKOSH        CLEAR     69  63  81 S6        29.95F
$$

WIZ032>034-041-042-053>061-060500-
SOUTHWEST WISCONSIN

CITY           SKY/WX    TMP DP  RH WIND       PRES   REMARKS
LA CROSSE      CLEAR     76  65  68 S9        29.88R
SPARTA         CLEAR     73  62  69 S9        29.91S
VIROQUA        CLEAR     70  65  84 S10       29.93S
BOSCOBEL       CLEAR     74  65  73 S6        29.92F HAZE
PRAIRIE DU CHI CLEAR     73  64  71 SE7       29.91S
PLATTEVILLE    CLEAR     68  66  91 SE8       29.96F
$$

WIZ056-057-062-063-064-067-068-060500-
SOUTH CENTRAL WISCONSIN

CITY           SKY/WX    TMP DP  RH WIND       PRES   REMARKS
REEDSBURG      CLEAR     70  65  82 S7        29.93S
BARABOO/DELLS  CLEAR     70  63  78 S9        29.93F
LONE ROCK      CLEAR     70  64  81 CALM      29.94F
MINERAL POINT  CLEAR     72  66  83 S7        29.96F
MADISON        PTCLDY    74  63  68 S10       29.95F
MIDDLETON      CLEAR     73  63  68 S12       29.96F
WATERTOWN      CLEAR     67  67 100 SE7       29.96F
MONROE         CLEAR     70  63  78 S10       29.97F
JANESVILLE     CLEAR     66  61  82 SE6       29.98F
$$

WIZ051-052-058>065-066-070>072-060500-
SOUTHEAST WISCONSIN

CITY           SKY/WX    TMP DP  RH WIND       PRES   REMARKS
MILWAUKEE      PTCLDY    70  59  68 S8        30.00F
WAUKESHA       CLEAR     66  59  77 S3        30.00F
MILWAUKEE/TIMM CLEAR     70  57  64 S3        30.01S
RACINE         CLEAR     71  59  65 S8        30.02F
BURLINGTON     CLEAR     60  59  97 S3        30.00F FOG
KENOSHA        CLEAR     68  60  75 S7        30.01S
FOND DU LAC    CLEAR     71  62  73 S8        29.95F
SHEBOYGAN      CLEAR     67  59  75 S9        29.96F
WEST BEND      CLEAR     68  59  73 SE5       29.98F
JUNEAU         CLEAR     69  62  80 SE10      29.97F
$$

LSZ147-162-060500-
LAKE SUPERIOR

STATION/POSITION TIME  TEMP    WIND        PRES    WAVE
                       AIR SEA DIR/SP/G            HT/PER
                 (UTC) (F)     (DEG/KT/KT) (MB)    (FT/S)
W MID LAKE BUOY  0350   52 39  170/ 12/ 12 1008.4F   0
DEVILS ISLAND    0400   74     200/ 10/ 14 1007.9R
PORT WING        0400   71     330/ 24     1009.5
SAXON HARBOR     0340   78     190/  7/ 16 1008.5R
$$

LMZ867-665-643>646-060500-
LAKE MICHIGAN

STATION/POSITION TIME  TEMP    WIND        PRES    WAVE
                       AIR SEA DIR/SP/G            HT/PER
                 (UTC) (F)     (DEG/KT/KT) (MB)    (FT/S)
CHAMBERS ISLAND  0300   71     150/  8/ 17 1013.5F
S GREEN BAY BUOY 0300   72 70  170/ 16/ 21 1015.2
N MID LAKE BUOY  0350   56 49  190/ 14/ 16 1014.1F   2/ 4
NORTHPORT PIER   0300   67     170/  7/ 13 1014.2F
SISTER BAY       0344   69     130/ 13/ 19   N/A
ALGOMA LAKESHORE 0211          210/  9/ 11   N/A
KEWAUNEE LAKESHO 0300   62     170/  9/ 10 1014.7R
SHEBOYGAN LAKESH 0400   63     170/ 16/ 17 1014.9F
PORT WASHINGTON  0300   65     190/  5/  8 1016.6R
ATWATER BUOY     0400   64 59  160/  6/  8 1016.9F
MILWAUKEE LAKESH 0400   69     180/  8/  8   N/A
KENOSHA   LAKESH 0400   68     180/ 10/ 12 1015.9S
$$

TC  - TEMPERATURE IN CELSIUS
VSB - VISIBILITY IN STATUTE MILES
WCI - WIND CHILL INDEX
HX  - HEAT INDEX




USA.gov is the U.S. government's official web portal to all federal, state and local government web resources and services.